Content
SEND FEEDBACK

Daily
Averages
Monthly
Summary
United States of America

ST. LOUIS, MISSOURI


Home > North America > United States > Missouri
Elevation: 163 meters     Latitude: 38 45N     Longitude: 090 22W

WEATHER
 
SELECT A DAY
Number of Records: 196,446;   Date Range: 1/1/95 - 8/12/14
 
SHARE

PRINT THIS DATA

[ ← Previous Day ]
WEATHER ALMANAC - 26 APRIL, 2013
[ Next Day → ]
[ °F ]   °C
Weather ElementAverageHighLow
Temperature12 °C15 °C (3:54 pm)7.2 °C (5:54 am)
Dewpoint5.8 °C7.2 °C (11:54 am)2 °C (1:54 am)
Humidity66.4 %82 % (5:54 am)51 % (1:54 am)
Barometer1026.4 hPa1028.4 hPa (9:54 am)1025.1 hPa (2:54 am)
Wind Speed9.2 km/h20.4 km/h (10:54 am)
Wind Gust27.8 km/h (1:54 pm)
Weather ElementAverage
Visibility16.1 km
Wind DirectionESE (127.8 °)

Weather ElementTotal
Precipitation---
Heating Degree Days7.2 (Base 18.3)
Growing Degree Days1.1 (Base 10)
Averaged from 23 records on 26 April, 2013
WEATHER CONDITIONS BREAKOUT
WIND DIRECTION BREAKOUT
WEATHER BY HOUR - 26 APRIL, 2013
[ °F ]   °C
Local TimeTemperatureDewpointHumidityBarometerVisibilityWind DirectionWind SpeedGust SpeedPrecipitationEventsConditions
1:54 AM12 °C2 °C51 %1025.7 hPa16.1 kmCalmClear
2:54 AM11.7 °C2.8 °C55 %1025.1 hPa16.1 kmCalmClear
3:54 AM10 °C2.8 °C61 %1025.1 hPa16.1 kmCalmClear
4:54 AM7.8 °C4.4 °C79 %1026.1 hPa16.1 kmCalmClear
5:54 AM7.2 °C4.4 °C82 %1025.7 hPa16.1 kmESE (110°)7.4 km/hMostly Cloudy
6:54 AM10 °C4.4 °C68 %1026.8 hPa16.1 kmSSE (160°)5.6 km/hOvercast
7:54 AM11.7 °C5.6 °C66 %1027.4 hPa16.1 kmCalmOvercast
8:54 AM12.8 °C5.6 °C62 %1027.8 hPa16.1 kmSSW (210°)16.7 km/h0 mmOvercast
9:54 AM13.3 °C6.1 °C62 %1028.4 hPa16.1 kmSSW (200°)14.8 km/h0 mmOvercast
10:54 AM13.3 °C6.7 °C64 %1028.4 hPa16.1 kmSouth (190°)20.4 km/h0 mmRainLight Rain
11:54 AM12.8 °C7.2 °C69 %1027.8 hPa16.1 kmSouth (180°)18.5 km/h0 mmOvercast
12:54 PM13.9 °C6.7 °C62 %1027.8 hPa16.1 kmSouth (180°)18.5 km/hOvercast
1:54 PM13.9 °C6.7 °C62 %1026.8 hPa16.1 kmSouth (170°)13 km/h27.8 km/hOvercast
2:54 PM13.9 °C6.7 °C62 %1026.8 hPa16.1 kmSSE (160°)13 km/h25.9 km/hOvercast
3:54 PM15 °C7.2 °C60 %1025.4 hPa16.1 kmSSE (150°)11.1 km/h25.9 km/hOvercast
4:54 PM15 °C6.1 °C55 %1025.4 hPa16.1 kmSouth (180°)18.5 km/h27.8 km/hOvercast
5:54 PM13.9 °C6.1 °C59 %1025.7 hPa16.1 kmSouth (170°)13 km/hMostly Cloudy
6:54 PM12.2 °C6.7 °C69 %1025.1 hPa16.1 kmSouth (170°)11.1 km/h0 mmOvercast
7:54 PM11.7 °C6.7 °C71 %1025.1 hPa16.1 kmSSW (210°)7.4 km/hOvercast
8:54 PM11.1 °C7.2 °C77 %1026.8 hPa16.1 kmSouth (180°)5.6 km/h0 mmRainLight Rain
9:54 PM11.1 °C7.2 °C77 %1026.8 hPa16.1 kmCalm0 mmOvercast
10:54 PM11.1 °C7.2 °C77 %1026.1 hPa16.1 kmSE (140°)5.6 km/hOvercast
11:54 PM10.6 °C6.7 °C77 %1026.1 hPa16.1 kmSouth (180°)9.3 km/h25.9 km/hOvercast
Hourly data recorded from KSUS, located 0 kilometers away from St. Louis, Missouri







STORIES FROM OUR PARTNERS